Home   Weather   Limburg an der Lahn   Past weeks

Flag for Germany Past Weather in Limburg an der Lahn, Hesse, Germany — Yesterday and Last 2 Weeks

Now
39 °F

Clear.


Feels Like: 37 °F
Forecast: 34 / 54 °F
Wind: 3 mph from North

Location: Hessen

Current Time: Apr 28, 2017 at 12:55:26 am

Latest Report: Apr 27, 2017 at 8:50 pm


Visibility: 10 mi

Pressure: 29.92 "Hg

Humidity: 52%

Dew Point: 23 °F

Location of Limburg an der LahnLocation

Past Weather in Limburg an der Lahn — Graph

°F

Limburg an der Lahn Temperature Yesterday

Maximum temperature yesterday: 46 °F (at 5:50 pm)
Minimum temperature yesterday: 34 °F (at 7:50 am)
Average temperature yesterday: 41 °F

High & Low Weather Summary for the Past Weeks

 TemperatureHumidityPressure
High54 °F (Apr 24, 3:20 pm)100% (Apr 13, 7:20 am)30.54 "Hg (Apr 13, 7:20 am)
Low28 °F (Apr 19, 7:50 am)37% (Apr 20, 4:20 pm)29.68 "Hg (Apr 25, 7:20 am)
Average41 °F72%30.08 "Hg
* Reported Apr 12 8:20 pm — Apr 27 8:50 pm, Limburg an der Lahn, Weather by CustomWeather, © 2017

Note: Actual official high and low records may vary slightly from our data, if they occured in-between our weather recording intervals... More about our weather records

Advertising

Limburg an der Lahn Weather History for the Previous 24 Hours

Scroll right to see more
 ConditionsComfort  
Time TempWeatherWind HumidityBarometerVisibility
8:50 pm
Thu, Apr 27
39 °FClear.3 mph52%29.92 "Hg10 mi
8:20 pm39 °FSunny.6 mph48%29.92 "Hg10 mi
7:50 pm43 °FPassing clouds.7 mph39%29.92 "HgN/A
7:20 pm45 °FPassing clouds.7 mph39%29.92 "HgN/A
6:50 pm43 °FPassing clouds.7 mph42%29.92 "HgN/A
6:20 pm43 °FPassing clouds.9 mph42%29.92 "HgN/A
5:50 pm46 °FScattered clouds.9 mph40%29.92 "HgN/A
5:20 pm45 °FScattered clouds.9 mph37%29.92 "HgN/A
4:50 pm43 °FPartly sunny.12 mph42%29.92 "HgN/A
4:20 pm45 °FPartly sunny.12 mph42%29.95 "HgN/A
3:50 pm43 °FBroken clouds.8 mph46%29.95 "HgN/A
3:20 pm45 °FScattered clouds.6 mph46%29.95 "HgN/A
2:50 pm43 °FScattered clouds.9 mph53%29.95 "HgN/A
2:20 pm43 °FBroken clouds.6 mph57%29.95 "HgN/A
1:50 pm41 °FBroken clouds.8 mph61%29.95 "HgN/A
1:20 pm43 °FPartly sunny.7 mph49%29.95 "HgN/A
12:50 pm41 °FScattered showers. Broken clouds.13 mph66%29.95 "HgN/A
12:20 pm41 °FScattered showers. Broken clouds.7 mph57%29.95 "HgN/A
11:50 am43 °FScattered showers. Broken clouds.2 mph57%29.95 "HgN/A
11:20 am39 °FPartly sunny.8 mph65%29.95 "HgN/A
10:50 am39 °FScattered clouds.7 mph61%29.95 "HgN/A
10:20 am39 °FScattered clouds.7 mph65%29.95 "HgN/A
9:50 am37 °FScattered clouds.8 mph81%29.95 "HgN/A
9:20 am37 °FPassing clouds.8 mph81%29.95 "HgN/A
8:50 am36 °FPassing clouds.8 mph87%29.95 "HgN/A
8:20 am36 °FSunny.7 mph87%29.95 "Hg10 mi
7:50 am34 °FSunny.6 mph93%29.92 "Hg10 mi
Weather by CustomWeather, © 2017

See weather overviewHow to use our weather pages